Location: Strawberry
(45.6646°N, 111.9596°W)
Time: 23:08:58
(UTC+00:00)

Courier 1B Rocket - Pass Details

Date: 08 October 2022
Orbit: 920 x 1202 km, 28.3° (Epoch: 03 December)

Event Time Altitude Azimuth Distance (km) Brightness Sun altitude
Rises 03:59:42 0° 246° (WSW) 3,751 8.5 -32.0°
Reaches altitude 10° 04:04:14 10° 219° (SW) 2,732 7.4 -32.7°
Enters shadow 04:05:11 11° 211° (SSW) 2,610 7.2 -32.8°
Maximum altitude 04:06:51 13° 196° (SSW) 2,511 - -33.1°
Drops below altitude 10° 04:09:25 10° 172° (S) 2,666 - -33.5°
Sets 04:13:43 0° 144° (SE) 3,570 - -34.1°
